Vorticity
9 9 7 5 6 8 7 5 4 6 4 1 3 7 8 9 9 9 7 6 7 8 8 9 10 9 7 6 6 5 3 2 4 6 6 5 5 5 4 4 3 4
10 7 8 8 5 6 9 8 7 9 8 4 5 7 6 6 8 8 8 7 6 7 7 7 8 8 7 6 7 6 3 1 4 6 5 6 6 5 4 3 4 6
7 4 6 9 7 7 9 9 8 7 5 3 6 10 7 5 6 8 10 9 6 4 4 6 7 8 8 8 8 8 5 4 5 6 5 5 6 6 4 4 6 8
4 4 5 7 7 6 5 6 8 8 4 0 2 7 8 8 8 10 13 11 6 2 0 2 6 9 9 9 8 7 7 8 7 5 4 6 8 6 5 6 9 7
5 5 4 2 2 4 5 6 8 7 4 2 3 3 5 8 10 11 12 10 5 1 1 1 3 8 10 8 7 6 7 8 6 6 5 6 8 6 6 8 9 7
4 3 3 3 4 6 8 9 10 7 3 3 7 7 5 4 7 14 12 6 4 3 5 6 3 5 10 10 9 6 6 8 7 7 7 6 6 5 7 10 8 4
3 3 3 5 6 6 9 9 8 6 3 3 2 2 8 5 0 10 12 5 6 7 7 8 6 5 7 9 12 10 7 8 9 8 6 6 6 5 9 10 4 3
5 5 5 6 5 6 8 6 8 10 9 8 -0 -3 10 9 -4 5 13 4 5 10 8 6 6 7 4 3 10 12 9 7 7 8 6 6 8 8 9 8 4 7
4 6 6 7 6 5 3 -0 5 11 11 10 5 5 14 5 -9 3 16 11 5 7 8 6 4 5 4 1 5 10 10 6 3 5 7 8 10 10 9 7 6 8
4 6 6 8 9 6 5 3 -0 2 9 8 0 4 12 8 0 1 6 11 10 4 6 8 4 5 9 5 3 7 12 12 6 0 3 9 13 12 8 7 8 5
6 7 7 8 7 3 5 9 3 -2 4 6 2 6 11 14 18 6 -9 -1 11 9 10 12 7 5 10 9 3 4 13 17 12 3 1 8 14 12 6 3 2 -0
7 10 14 14 14 15 11 10 11 7 6 3 -2 0 5 12 22 15 -4 -2 9 7 4 10 12 5 6 10 5 3 11 15 14 9 4 7 13 11 6 -1 -7 -5
8 12 17 17 20 24 18 15 22 23 19 13 2 -0 5 10 18 17 6 6 14 10 1 5 14 11 7 8 5 4 8 8 9 12 6 4 8 10 11 7 -0 0
7 6 8 9 10 8 -2 -0 16 16 11 14 13 11 9 5 11 19 18 15 11 10 12 9 9 14 13 9 6 5 5 3 4 8 5 3 5 10 15 14 7 5
6 1 -0 2 11 17 -1 -13 1 4 -3 -1 1 5 9 3 4 10 18 23 7 0 19 14 1 15 19 7 6 4 0 2 2 3 6 5 6 10 10 7 7 6
6 2 2 -1 8 28 21 5 7 5 -3 -4 -4 7 15 13 15 12 10 18 2 -4 21 15 -0 18 19 -0 3 5 1 4 1 3 10 7 5 7 5 6 9 4
7 3 4 0 2 18 25 21 17 7 4 8 9 14 14 11 25 28 21 22 3 -8 18 24 11 12 0 -9 3 7 6 8 1 5 13 7 4 6 5 8 5 -2
8 2 -2 -0 7 20 30 28 15 6 10 11 8 14 13 6 11 15 23 36 23 8 19 26 20 10 -8 -7 7 10 13 12 1 6 15 7 4 5 5 4 -1 -0
5 3 -5 -4 5 17 29 26 16 14 14 6 6 15 13 8 9 11 14 17 20 33 38 26 24 23 9 6 9 11 19 12 -2 8 17 7 3 6 5 1 -1 6
2 2 -5 -4 1 8 14 14 14 16 9 6 16 18 11 11 13 16 20 10 8 38 55 40 26 19 11 11 12 16 20 7 -3 11 17 7 7 9 6 4 6 10
6 4 -3 -2 3 7 10 9 8 11 13 18 20 11 10 18 15 28 50 31 -1 7 27 27 18 9 10 18 19 19 13 -2 3 20 16 6 8 9 8 9 10 8
2 3 -0 1 4 5 7 5 4 12 20 20 13 15 26 21 10 31 51 26 2 13 24 22 17 10 9 16 23 22 6 -3 15 26 11 2 6 7 8 10 7 5
-3 -3 -1 4 6 6 7 5 4 11 17 17 22 38 44 21 4 19 28 15 16 26 23 22 21 10 7 21 33 20 -5 -0 24 22 2 0 5 4 6 6 4 8
-2 -7 -3 6 9 8 7 6 6 9 16 24 23 12 2 -2 5 16 17 15 16 7 6 22 25 13 15 28 24 2 -6 15 28 9 -8 -4 1 4 7 6 6 10
1 -5 -0 8 12 13 12 10 9 10 18 25 15 -4 -10 2 16 15 10 14 11 -2 9 33 29 14 14 15 8 2 13 29 21 -5 -13 -7 -1 4 6 3 5 8
2 1 6 11 15 20 17 10 9 14 22 23 13 7 9 11 13 11 9 11 5 5 32 50 34 19 20 17 10 7 10 15 4 -13 -13 -7 -4 1 1 1 5 6
Height
5902 5902 5901 5900 5900 5899 5899 5899 5899 5899 5898 5898 5897 5896 5895 5894 5893 5893 5892 5891 5891 5890 5889 5888 5887 5887 5886 5885 5884 5884 5883 5882 5880 5879 5878 5877 5876 5875 5874 5873 5872 5871
5900 5900 5899 5899 5898 5897 5897 5897 5897 5897 5896 5896 5895 5893 5892 5891 5890 5889 5889 5888 5888 5887 5886 5885 5883 5883 5882 5882 5881 5881 5880 5879 5877 5876 5875 5874 5872 5871 5870 5869 5868 5867
5898 5898 5897 5897 5896 5896 5895 5895 5895 5894 5894 5893 5893 5891 5890 5889 5888 5886 5886 5885 5885 5884 5883 5882 5880 5880 5879 5878 5878 5878 5877 5875 5874 5872 5871 5870 5868 5867 5867 5865 5864 5864
5896 5896 5895 5894 5894 5893 5893 5893 5892 5891 5891 5890 5890 5889 5887 5886 5885 5884 5884 5883 5883 5882 5880 5879 5878 5876 5876 5875 5875 5874 5873 5872 5871 5869 5868 5866 5865 5864 5863 5862 5861 5860
5894 5893 5892 5891 5891 5891 5890 5890 5889 5888 5887 5886 5886 5885 5884 5884 5883 5882 5881 5880 5879 5878 5877 5876 5875 5873 5872 5872 5871 5870 5870 5869 5867 5866 5864 5863 5862 5861 5860 5858 5857 5856
5891 5891 5890 5889 5888 5888 5887 5887 5886 5885 5884 5882 5882 5881 5881 5880 5879 5878 5877 5876 5875 5874 5873 5872 5871 5870 5869 5868 5867 5866 5866 5865 5863 5862 5861 5860 5859 5858 5856 5855 5854 5853
5889 5888 5887 5886 5886 5885 5884 5884 5883 5882 5881 5880 5878 5877 5877 5876 5875 5874 5873 5873 5871 5870 5869 5868 5867 5866 5865 5864 5863 5862 5862 5861 5860 5859 5858 5857 5855 5854 5853 5851 5850 5849
5886 5885 5884 5883 5882 5882 5881 5880 5880 5879 5879 5877 5875 5874 5873 5872 5871 5871 5870 5869 5868 5866 5865 5864 5863 5862 5861 5860 5859 5858 5858 5857 5856 5855 5854 5853 5852 5851 5849 5848 5846 5845
5883 5882 5881 5879 5879 5878 5877 5877 5876 5876 5875 5873 5872 5871 5870 5869 5868 5867 5866 5865 5863 5862 5861 5860 5859 5858 5857 5856 5856 5855 5854 5853 5853 5852 5850 5849 5848 5847 5845 5844 5843 5841
5879 5877 5875 5875 5876 5875 5874 5873 5873 5872 5870 5869 5868 5866 5865 5864 5863 5863 5862 5860 5859 5858 5857 5856 5855 5854 5853 5852 5852 5851 5850 5849 5848 5848 5846 5845 5844 5842 5841 5840 5839 5838
5874 5872 5872 5873 5873 5872 5870 5868 5867 5867 5865 5863 5862 5861 5861 5859 5858 5858 5857 5856 5855 5854 5853 5852 5850 5849 5848 5847 5847 5846 5845 5844 5844 5843 5842 5841 5839 5838 5837 5836 5835 5834
5869 5868 5870 5870 5868 5866 5864 5863 5862 5862 5860 5859 5859 5858 5857 5855 5853 5853 5852 5851 5850 5849 5848 5846 5845 5844 5843 5842 5842 5842 5840 5839 5838 5838 5836 5835 5834 5833 5833 5832 5830 5829
5866 5866 5866 5864 5862 5861 5859 5858 5858 5857 5855 5855 5855 5855 5854 5851 5849 5848 5846 5846 5845 5843 5842 5841 5839 5838 5838 5837 5837 5837 5836 5834 5833 5832 5831 5830 5829 5829 5828 5827 5825 5824
5864 5864 5862 5859 5856 5855 5856 5855 5854 5853 5852 5851 5851 5851 5849 5847 5845 5843 5841 5839 5839 5837 5835 5834 5833 5832 5832 5832 5832 5832 5831 5830 5829 5827 5826 5825 5825 5824 5823 5822 5821 5820
5862 5860 5857 5853 5847 5848 5853 5852 5850 5849 5849 5847 5846 5846 5844 5842 5840 5838 5835 5833 5832 5830 5828 5827 5827 5826 5826 5826 5827 5827 5826 5825 5824 5823 5822 5821 5820 5820 5819 5818 5816 5815
5859 5857 5854 5849 5842 5842 5847 5847 5845 5845 5845 5844 5842 5840 5838 5836 5833 5831 5830 5827 5825 5822 5821 5821 5820 5820 5820 5821 5821 5821 5820 5820 5819 5818 5817 5816 5816 5815 5814 5813 5812 5810
5856 5854 5851 5846 5839 5836 5839 5843 5842 5841 5840 5840 5837 5834 5832 5829 5826 5824 5822 5820 5817 5815 5814 5814 5813 5814 5815 5816 5815 5815 5814 5814 5814 5813 5812 5811 5811 5810 5809 5807 5806 5805
5852 5850 5847 5843 5837 5832 5834 5838 5838 5836 5835 5833 5831 5828 5826 5823 5821 5819 5816 5812 5808 5806 5807 5808 5809 5809 5810 5809 5808 5808 5808 5809 5808 5808 5806 5806 5805 5805 5804 5802 5801 5800
5847 5845 5843 5840 5835 5831 5831 5832 5832 5831 5829 5827 5824 5822 5820 5818 5817 5814 5810 5806 5803 5803 5804 5805 5806 5805 5804 5803 5802 5803 5803 5803 5803 5802 5800 5800 5800 5799 5799 5797 5795 5793
5843 5841 5839 5836 5832 5829 5826 5825 5824 5824 5822 5818 5816 5814 5812 5811 5811 5808 5803 5802 5803 5802 5801 5802 5803 5802 5800 5798 5797 5797 5798 5798 5798 5796 5795 5795 5795 5794 5794 5793 5791 5788
5838 5836 5834 5832 5829 5826 5823 5820 5818 5816 5813 5810 5808 5807 5805 5805 5805 5802 5800 5800 5802 5801 5798 5798 5798 5796 5794 5793 5792 5792 5792 5793 5792 5791 5791 5791 5790 5790 5789 5788 5786 5783
5833 5831 5829 5827 5824 5822 5819 5816 5813 5811 5808 5806 5804 5802 5800 5800 5800 5799 5798 5798 5798 5796 5794 5793 5792 5790 5789 5789 5787 5786 5787 5788 5787 5786 5786 5786 5786 5785 5783 5781 5779 5776
5828 5826 5824 5822 5819 5817 5814 5812 5810 5808 5805 5802 5800 5796 5794 5794 5795 5793 5792 5792 5792 5790 5789 5788 5786 5785 5785 5784 5782 5782 5783 5783 5782 5782 5782 5781 5780 5779 5777 5775 5772 5770
5823 5821 5819 5817 5814 5812 5809 5807 5806 5804 5802 5799 5795 5791 5788 5789 5789 5787 5787 5787 5786 5785 5785 5783 5781 5781 5781 5779 5779 5778 5778 5777 5777 5777 5777 5776 5775 5773 5771 5769 5766 5764
5818 5816 5814 5811 5809 5806 5804 5802 5801 5799 5797 5795 5791 5787 5785 5785 5784 5784 5784 5783 5782 5781 5780 5778 5776 5776 5775 5774 5774 5773 5773 5773 5773 5772 5771 5770 5769 5766 5764 5762 5760 5758
5814 5811 5809 5806 5803 5801 5799 5798 5796 5794 5792 5791 5787 5784 5783 5782 5781 5780 5780 5778 5778 5777 5775 5773 5772 5772 5771 5770 5769 5768 5768 5768 5768 5767 5766 5764 5762 5760 5757 5755 5754 5752